M I D A S
Marine Information and Data Acquisition System
Tripno 1263 of the Zeeleeuw from 2007-04-13 07:27:27 to 2007-04-13 15:20:58
Back to CruiseResearch ActivitiesStationsMapUnderway DataData graphs

EquipmentUnitsComments
TimeDGPSUTC
LatitudeDGPSDM.mWGS84
LongitudeDGPSDM.mWGS84
SpeedMeteo Stationm/sRelative wind speed
DirectionMeteo StationdegRelative wind direction
TemperatureMeteo Stationdeg CelciusAir temperature
PressureMeteo StationPaAtmospheric pressure
HumidityMeteo Station%Relative humidity
Missing or incorrect values are displayed as -999
Metereological data collected by the RV Zeeleeuw from 2007-04-13 07:29:40 to 2007-04-13 15:22:38
                                                                                    Next 1000 lines
Time Latitude Longitude Speed Direction Temperature Pressure Humidity
2007-04-13 07:29:50 51°13.602 2°56.097 -999 -999 -999 -999 -999
2007-04-13 07:29:55 51°13.602 2°56.095 -999 -999 -999 -999 -999
2007-04-13 07:30:00 51°13.602 2°56.093 -999 -999 -999 -999 -999
2007-04-13 07:30:05 51°13.603 2°56.089 -999 -999 -999 -999 -999
2007-04-13 07:30:10 51°13.604 2°56.084 -999 -999 -999 -999 -999
2007-04-13 07:30:15 51°13.605 2°56.078 -999 -999 -999 -999 -999
2007-04-13 07:30:20 51°13.607 2°56.072 -999 -999 -999 -999 -999
2007-04-13 07:30:25 51°13.609 2°56.064 -999 -999 -999 -999 -999
2007-04-13 07:30:30 51°13.61 2°56.057 -999 -999 -999 -999 -999
2007-04-13 07:30:35 51°13.612 2°56.05 -999 -999 -999 -999 -999
2007-04-13 07:30:40 51°13.613 2°56.043 -999 -999 -999 -999 -999
2007-04-13 07:30:45 51°13.615 2°56.036 -999 -999 -999 -999 -999
2007-04-13 07:30:50 51°13.617 2°56.028 -999 -999 -999 -999 -999
2007-04-13 07:30:55 51°13.618 2°56.021 -999 -999 -999 -999 -999
2007-04-13 07:31:00 51°13.62 2°56.013 -999 -999 -999 -999 -999
2007-04-13 07:31:05 51°13.622 2°56.006 -999 -999 -999 -999 -999
2007-04-13 07:31:10 51°13.624 2°55.999 -999 -999 -999 -999 -999
2007-04-13 07:31:15 51°13.626 2°55.991 -999 -999 -999 -999 -999
2007-04-13 07:31:20 51°13.628 2°55.984 -999 -999 -999 -999 -999
2007-04-13 07:31:25 51°13.63 2°55.977 -999 -999 -999 -999 -999
2007-04-13 07:31:30 51°13.632 2°55.969 -999 -999 -999 -999 -999
2007-04-13 07:31:35 51°13.634 2°55.961 -999 -999 -999 -999 -999
2007-04-13 07:31:40 51°13.636 2°55.954 -999 -999 -999 -999 -999
2007-04-13 07:31:45 51°13.639 2°55.946 -999 -999 -999 -999 -999
2007-04-13 07:31:50 51°13.641 2°55.938 -999 -999 -999 -999 -999
2007-04-13 07:31:55 51°13.644 2°55.931 -999 -999 -999 -999 -999
2007-04-13 07:32:00 51°13.646 2°55.924 -999 -999 -999 -999 -999
2007-04-13 07:32:05 51°13.649 2°55.916 -999 -999 -999 -999 -999
2007-04-13 07:32:10 51°13.652 2°55.909 -999 -999 -999 -999 -999
2007-04-13 07:32:15 51°13.655 2°55.901 -999 -999 -999 -999 -999
2007-04-13 07:32:21 51°13.658 2°55.891 -999 -999 -999 -999 -999
2007-04-13 07:32:25 51°13.661 2°55.884 -999 -999 -999 -999 -999
2007-04-13 07:32:30 51°13.664 2°55.876 -999 -999 -999 -999 -999
2007-04-13 07:32:35 51°13.667 2°55.869 -999 -999 -999 -999 -999
2007-04-13 07:32:40 51°13.67 2°55.861 -999 -999 -999 -999 -999
2007-04-13 07:32:45 51°13.672 2°55.854 -999 -999 -999 -999 -999
2007-04-13 07:32:50 51°13.675 2°55.847 -999 -999 -999 -999 -999
2007-04-13 07:32:55 51°13.677 2°55.84 -999 -999 -999 -999 -999
2007-04-13 07:33:00 51°13.68 2°55.833 -999 -999 -999 -999 -999
2007-04-13 07:33:05 51°13.682 2°55.827 -999 -999 -999 -999 -999
2007-04-13 07:33:10 51°13.684 2°55.82 -999 -999 -999 -999 -999
2007-04-13 07:33:15 51°13.687 2°55.814 -999 -999 -999 -999 -999
2007-04-13 07:33:20 51°13.689 2°55.808 -999 -999 -999 -999 -999
2007-04-13 07:33:25 51°13.691 2°55.802 -999 -999 -999 -999 -999
2007-04-13 07:33:30 51°13.693 2°55.796 -999 -999 -999 -999 -999
2007-04-13 07:33:35 51°13.694 2°55.79 -999 -999 -999 -999 -999
2007-04-13 07:33:40 51°13.696 2°55.784 -999 -999 -999 -999 -999
2007-04-13 07:33:45 51°13.698 2°55.778 -999 -999 -999 -999 -999
2007-04-13 07:33:50 51°13.7 2°55.772 -999 -999 -999 -999 -999
2007-04-13 07:33:55 51°13.701 2°55.767 -999 -999 -999 -999 -999
2007-04-13 07:34:00 51°13.703 2°55.762 -999 -999 -999 -999 -999
2007-04-13 07:34:05 51°13.704 2°55.758 -999 -999 -999 -999 -999
2007-04-13 07:34:10 51°13.705 2°55.754 -999 -999 -999 -999 -999
2007-04-13 07:34:15 51°13.706 2°55.75 -999 -999 -999 -999 -999
2007-04-13 07:34:20 51°13.707 2°55.746 -999 -999 -999 -999 -999
2007-04-13 07:34:25 51°13.707 2°55.743 -999 -999 -999 -999 -999
2007-04-13 07:34:30 51°13.708 2°55.74 -999 -999 -999 -999 -999
2007-04-13 07:34:35 51°13.708 2°55.736 -999 -999 -999 -999 -999
2007-04-13 07:34:40 51°13.709 2°55.734 -999 -999 -999 -999 -999
2007-04-13 07:34:45 51°13.71 2°55.733 -999 -999 -999 -999 -999
2007-04-13 07:34:50 51°13.71 2°55.733 -999 -999 -999 -999 -999
2007-04-13 07:34:55 51°13.712 2°55.734 -999 -999 -999 -999 -999
2007-04-13 07:35:00 51°13.713 2°55.737 -999 -999 -999 -999 -999
2007-04-13 07:35:05 51°13.713 2°55.74 -999 -999 -999 -999 -999
2007-04-13 07:35:10 51°13.713 2°55.742 -999 -999 -999 -999 -999
2007-04-13 07:35:15 51°13.714 2°55.743 -999 -999 -999 -999 -999
2007-04-13 07:35:20 51°13.714 2°55.744 -999 -999 -999 -999 -999
2007-04-13 07:35:25 51°13.714 2°55.745 -999 -999 -999 -999 -999
2007-04-13 07:35:30 51°13.714 2°55.745 -999 -999 -999 -999 -999
2007-04-13 07:35:35 51°13.714 2°55.744 -999 -999 -999 -999 -999
2007-04-13 07:35:40 51°13.714 2°55.742 -999 -999 -999 -999 -999
2007-04-13 07:35:45 51°13.713 2°55.74 -999 -999 -999 -999 -999
2007-04-13 07:35:50 51°13.712 2°55.738 -999 -999 -999 -999 -999
2007-04-13 07:35:55 51°13.711 2°55.736 -999 -999 -999 -999 -999
2007-04-13 07:36:00 51°13.711 2°55.734 -999 -999 -999 -999 -999
2007-04-13 07:36:05 51°13.71 2°55.731 -999 -999 -999 -999 -999
2007-04-13 07:36:10 51°13.709 2°55.729 -999 -999 -999 -999 -999
2007-04-13 07:36:15 51°13.709 2°55.728 -999 -999 -999 -999 -999
2007-04-13 07:36:20 51°13.71 2°55.728 -999 -999 -999 -999 -999
2007-04-13 07:36:25 51°13.711 2°55.729 -999 -999 -999 -999 -999
2007-04-13 07:36:30 51°13.712 2°55.73 -999 -999 -999 -999 -999
2007-04-13 07:36:35 51°13.714 2°55.731 -999 -999 -999 -999 -999
2007-04-13 07:36:41 51°13.716 2°55.731 -999 -999 -999 -999 -999
2007-04-13 07:36:45 51°13.718 2°55.732 -999 -999 -999 -999 -999
2007-04-13 07:36:50 51°13.72 2°55.732 -999 -999 -999 -999 -999
2007-04-13 07:36:55 51°13.722 2°55.733 -999 -999 -999 -999 -999
2007-04-13 07:37:00 51°13.725 2°55.732 -999 -999 -999 -999 -999
2007-04-13 07:37:05 51°13.728 2°55.732 -999 -999 -999 -999 -999
2007-04-13 07:37:10 51°13.731 2°55.731 -999 -999 -999 -999 -999
2007-04-13 07:37:15 51°13.734 2°55.729 -999 -999 -999 -999 -999
2007-04-13 07:37:20 51°13.737 2°55.727 -999 -999 -999 -999 -999
2007-04-13 07:37:25 51°13.74 2°55.725 -999 -999 -999 -999 -999
2007-04-13 07:37:30 51°13.744 2°55.722 -999 -999 -999 -999 -999
2007-04-13 07:37:35 51°13.749 2°55.717 -999 -999 -999 -999 -999
2007-04-13 07:37:40 51°13.755 2°55.711 -999 -999 -999 -999 -999
2007-04-13 07:37:45 51°13.761 2°55.704 -999 -999 -999 -999 -999
2007-04-13 07:37:51 51°13.77 2°55.695 -999 -999 -999 -999 -999
2007-04-13 07:37:55 51°13.775 2°55.689 -999 -999 -999 -999 -999
2007-04-13 07:38:00 51°13.782 2°55.682 -999 -999 -999 -999 -999
2007-04-13 07:38:05 51°13.79 2°55.674 -999 -999 -999 -999 -999
2007-04-13 07:38:10 51°13.799 2°55.665 -999 -999 -999 -999 -999
2007-04-13 07:38:15 51°13.808 2°55.657 -999 -999 -999 -999 -999
2007-04-13 07:38:20 51°13.817 2°55.649 -999 -999 -999 -999 -999
2007-04-13 07:38:25 51°13.827 2°55.641 -999 -999 -999 -999 -999
2007-04-13 07:38:30 51°13.836 2°55.633 -999 -999 -999 -999 -999
2007-04-13 07:38:35 51°13.847 2°55.626 -999 -999 -999 -999 -999
2007-04-13 07:38:40 51°13.856 2°55.618 -999 -999 -999 -999 -999
2007-04-13 07:38:45 51°13.867 2°55.61 -999 -999 -999 -999 -999
2007-04-13 07:38:50 51°13.877 2°55.602 -999 -999 -999 -999 -999
2007-04-13 07:38:55 51°13.888 2°55.595 -999 -999 -999 -999 -999
2007-04-13 07:39:00 51°13.898 2°55.587 -999 -999 -999 -999 -999
2007-04-13 07:39:05 51°13.909 2°55.579 -999 -999 -999 -999 -999
2007-04-13 07:39:10 51°13.92 2°55.571 -999 -999 -999 -999 -999
2007-04-13 07:39:15 51°13.93 2°55.563 -999 -999 -999 -999 -999
2007-04-13 07:39:20 51°13.941 2°55.555 -999 -999 -999 -999 -999
2007-04-13 07:39:25 51°13.951 2°55.547 -999 -999 -999 -999 -999
2007-04-13 07:39:30 51°13.962 2°55.538 -999 -999 -999 -999 -999
2007-04-13 07:39:35 51°13.973 2°55.53 -999 -999 -999 -999 -999
2007-04-13 07:39:40 51°13.984 2°55.522 -999 -999 -999 -999 -999
2007-04-13 07:39:45 51°13.995 2°55.514 -999 -999 -999 -999 -999
2007-04-13 07:39:50 51°14.005 2°55.506 -999 -999 -999 -999 -999
2007-04-13 07:39:55 51°14.016 2°55.497 -999 -999 -999 -999 -999
2007-04-13 07:40:00 51°14.027 2°55.489 -999 -999 -999 -999 -999
2007-04-13 07:40:05 51°14.038 2°55.481 -999 -999 -999 -999 -999
2007-04-13 07:40:10 51°14.049 2°55.473 -999 -999 -999 -999 -999
2007-04-13 07:40:15 51°14.059 2°55.465 -999 -999 -999 -999 -999
2007-04-13 07:40:20 51°14.07 2°55.457 -999 -999 -999 -999 -999
2007-04-13 07:40:25 51°14.081 2°55.449 -999 -999 -999 -999 -999
2007-04-13 07:40:30 51°14.091 2°55.441 -999 -999 -999 -999 -999
2007-04-13 07:40:35 51°14.102 2°55.433 -999 -999 -999 -999 -999
2007-04-13 07:40:40 51°14.113 2°55.424 -999 -999 -999 -999 -999
2007-04-13 07:40:45 51°14.124 2°55.416 -999 -999 -999 -999 -999
2007-04-13 07:40:50 51°14.135 2°55.408 -999 -999 -999 -999 -999
2007-04-13 07:40:56 51°14.148 2°55.397 -999 -999 -999 -999 -999
2007-04-13 07:41:00 51°14.156 2°55.389 -999 -999 -999 -999 -999
2007-04-13 07:41:05 51°14.167 2°55.38 -999 -999 -999 -999 -999
2007-04-13 07:41:10 51°14.177 2°55.37 -999 -999 -999 -999 -999
2007-04-13 07:41:15 51°14.187 2°55.36 -999 -999 -999 -999 -999
2007-04-13 07:41:20 51°14.197 2°55.349 -999 -999 -999 -999 -999
2007-04-13 07:41:25 51°14.206 2°55.338 -999 -999 -999 -999 -999
2007-04-13 07:41:30 51°14.216 2°55.326 -999 -999 -999 -999 -999
2007-04-13 07:41:35 51°14.226 2°55.312 -999 -999 -999 -999 -999
2007-04-13 07:41:40 51°14.236 2°55.299 -999 -999 -999 -999 -999
2007-04-13 07:41:45 51°14.246 2°55.283 -999 -999 -999 -999 -999
2007-04-13 07:41:50 51°14.256 2°55.267 -999 -999 -999 -999 -999
2007-04-13 07:41:55 51°14.267 2°55.25 -999 -999 -999 -999 -999
2007-04-13 07:42:00 51°14.277 2°55.232 -999 -999 -999 -999 -999
2007-04-13 07:42:05 51°14.287 2°55.213 -999 -999 -999 -999 -999
2007-04-13 07:42:10 51°14.297 2°55.194 -999 -999 -999 -999 -999
2007-04-13 07:42:15 51°14.308 2°55.174 -999 -999 -999 -999 -999
2007-04-13 07:42:20 51°14.319 2°55.153 -999 -999 -999 -999 -999
2007-04-13 07:42:25 51°14.33 2°55.132 -999 -999 -999 -999 -999
2007-04-13 07:42:30 51°14.341 2°55.111 -999 -999 -999 -999 -999
2007-04-13 07:42:35 51°14.353 2°55.091 -999 -999 -999 -999 -999
2007-04-13 07:42:40 51°14.367 2°55.071 -999 -999 -999 -999 -999
2007-04-13 07:42:45 51°14.38 2°55.053 -999 -999 -999 -999 -999
2007-04-13 07:42:50 51°14.396 2°55.038 -999 -999 -999 -999 -999
2007-04-13 07:42:55 51°14.411 2°55.022 -999 -999 -999 -999 -999
2007-04-13 07:43:00 51°14.427 2°55.007 -999 -999 -999 -999 -999
2007-04-13 07:43:05 51°14.442 2°54.991 -999 -999 -999 -999 -999
2007-04-13 07:43:10 51°14.457 2°54.975 -999 -999 -999 -999 -999
2007-04-13 07:43:15 51°14.471 2°54.958 -999 -999 -999 -999 -999
2007-04-13 07:43:20 51°14.486 2°54.941 -999 -999 -999 -999 -999
2007-04-13 07:43:25 51°14.501 2°54.924 -999 -999 -999 -999 -999
2007-04-13 07:43:30 51°14.515 2°54.907 -999 -999 -999 -999 -999
2007-04-13 07:43:35 51°14.53 2°54.89 -999 -999 -999 -999 -999
2007-04-13 07:43:40 51°14.544 2°54.873 -999 -999 -999 -999 -999
2007-04-13 07:43:45 51°14.559 2°54.856 -999 -999 -999 -999 -999
2007-04-13 07:43:50 51°14.574 2°54.839 -999 -999 -999 -999 -999
2007-04-13 07:43:55 51°14.589 2°54.822 -999 -999 -999 -999 -999
2007-04-13 07:44:00 51°14.603 2°54.804 -999 -999 -999 -999 -999
2007-04-13 07:44:05 51°14.618 2°54.787 -999 -999 -999 -999 -999
2007-04-13 07:44:10 51°14.633 2°54.77 -999 -999 -999 -999 -999
2007-04-13 07:44:15 51°14.648 2°54.753 -999 -999 -999 -999 -999
2007-04-13 07:44:20 51°14.663 2°54.735 -999 -999 -999 -999 -999
2007-04-13 07:44:25 51°14.678 2°54.719 -999 -999 -999 -999 -999
2007-04-13 07:44:30 51°14.693 2°54.702 -999 -999 -999 -999 -999
2007-04-13 07:44:35 51°14.708 2°54.686 -999 -999 -999 -999 -999
2007-04-13 07:44:40 51°14.724 2°54.671 -999 -999 -999 -999 -999
2007-04-13 07:44:45 51°14.74 2°54.656 -999 -999 -999 -999 -999
2007-04-13 07:44:51 51°14.759 2°54.637 -999 -999 -999 -999 -999
2007-04-13 07:44:55 51°14.772 2°54.626 -999 -999 -999 -999 -999
2007-04-13 07:45:00 51°14.788 2°54.611 -999 -999 -999 -999 -999
2007-04-13 07:45:05 51°14.804 2°54.597 -999 -999 -999 -999 -999
2007-04-13 07:45:10 51°14.82 2°54.583 -999 -999 -999 -999 -999
2007-04-13 07:45:15 51°14.837 2°54.569 -999 -999 -999 -999 -999
2007-04-13 07:45:20 51°14.853 2°54.555 -999 -999 -999 -999 -999
2007-04-13 07:45:25 51°14.869 2°54.541 -999 -999 -999 -999 -999
2007-04-13 07:45:30 51°14.885 2°54.527 -999 -999 -999 -999 -999
2007-04-13 07:45:35 51°14.901 2°54.513 -999 -999 -999 -999 -999
2007-04-13 07:45:40 51°14.917 2°54.499 -999 -999 -999 -999 -999
2007-04-13 07:45:45 51°14.934 2°54.485 -999 -999 -999 -999 -999
2007-04-13 07:45:50 51°14.95 2°54.471 -999 -999 -999 -999 -999
2007-04-13 07:45:55 51°14.966 2°54.457 -999 -999 -999 -999 -999
2007-04-13 07:46:00 51°14.982 2°54.443 -999 -999 -999 -999 -999
2007-04-13 07:46:05 51°14.997 2°54.429 -999 -999 -999 -999 -999
2007-04-13 07:46:10 51°15.013 2°54.415 -999 -999 -999 -999 -999
2007-04-13 07:46:15 51°15.029 2°54.4 -999 -999 -999 -999 -999
2007-04-13 07:46:20 51°15.045 2°54.386 -999 -999 -999 -999 -999
2007-04-13 07:46:25 51°15.061 2°54.372 -999 -999 -999 -999 -999
2007-04-13 07:46:30 51°15.078 2°54.358 -999 -999 -999 -999 -999
2007-04-13 07:46:35 51°15.093 2°54.344 -999 -999 -999 -999 -999
2007-04-13 07:46:40 51°15.109 2°54.329 -999 -999 -999 -999 -999
2007-04-13 07:46:45 51°15.125 2°54.315 -999 -999 -999 -999 -999
2007-04-13 07:46:51 51°15.145 2°54.298 -999 -999 -999 -999 -999
2007-04-13 07:46:55 51°15.158 2°54.287 -999 -999 -999 -999 -999
2007-04-13 07:47:00 51°15.174 2°54.272 -999 -999 -999 -999 -999
2007-04-13 07:47:05 51°15.189 2°54.258 -999 -999 -999 -999 -999
2007-04-13 07:47:10 51°15.206 2°54.244 -999 -999 -999 -999 -999
2007-04-13 07:47:15 51°15.222 2°54.23 -999 -999 -999 -999 -999
2007-04-13 07:47:20 51°15.239 2°54.217 -999 -999 -999 -999 -999
2007-04-13 07:47:25 51°15.255 2°54.204 -999 -999 -999 -999 -999
2007-04-13 07:47:30 51°15.272 2°54.191 -999 -999 -999 -999 -999
2007-04-13 07:47:35 51°15.288 2°54.178 -999 -999 -999 -999 -999
2007-04-13 07:47:40 51°15.305 2°54.166 -999 -999 -999 -999 -999
2007-04-13 07:47:45 51°15.321 2°54.153 -999 -999 -999 -999 -999
2007-04-13 07:47:50 51°15.338 2°54.14 -999 -999 -999 -999 -999
2007-04-13 07:47:55 51°15.354 2°54.127 -999 -999 -999 -999 -999
2007-04-13 07:48:00 51°15.371 2°54.115 -999 -999 -999 -999 -999
2007-04-13 07:48:05 51°15.387 2°54.102 -999 -999 -999 -999 -999
2007-04-13 07:48:10 51°15.403 2°54.089 -999 -999 -999 -999 -999
2007-04-13 07:48:15 51°15.42 2°54.075 -999 -999 -999 -999 -999
2007-04-13 07:48:20 51°15.436 2°54.063 -999 -999 -999 -999 -999
2007-04-13 07:48:25 51°15.453 2°54.05 -999 -999 -999 -999 -999
2007-04-13 07:48:30 51°15.469 2°54.038 -999 -999 -999 -999 -999
2007-04-13 07:48:35 51°15.486 2°54.025 -999 -999 -999 -999 -999
2007-04-13 07:48:40 51°15.502 2°54.012 -999 -999 -999 -999 -999
2007-04-13 07:48:45 51°15.519 2°54 -999 -999 -999 -999 -999
2007-04-13 07:48:50 51°15.535 2°53.987 -999 -999 -999 -999 -999
2007-04-13 07:48:55 51°15.552 2°53.975 -999 -999 -999 -999 -999
2007-04-13 07:49:00 51°15.568 2°53.962 -999 -999 -999 -999 -999
2007-04-13 07:49:05 51°15.584 2°53.949 -999 -999 -999 -999 -999
2007-04-13 07:49:10 51°15.601 2°53.937 -999 -999 -999 -999 -999
2007-04-13 07:49:15 51°15.617 2°53.924 -999 -999 -999 -999 -999
2007-04-13 07:49:20 51°15.634 2°53.911 -999 -999 -999 -999 -999
2007-04-13 07:49:25 51°15.65 2°53.898 -999 -999 -999 -999 -999
2007-04-13 07:49:30 51°15.666 2°53.885 -999 -999 -999 -999 -999
2007-04-13 07:49:35 51°15.683 2°53.873 -999 -999 -999 -999 -999
2007-04-13 07:49:40 51°15.7 2°53.86 -999 -999 -999 -999 -999
2007-04-13 07:49:45 51°15.716 2°53.848 -999 -999 -999 -999 -999
2007-04-13 07:49:50 51°15.733 2°53.835 -999 -999 -999 -999 -999
2007-04-13 07:49:55 51°15.749 2°53.823 -999 -999 -999 -999 -999
2007-04-13 07:50:00 51°15.766 2°53.81 -999 -999 -999 -999 -999
2007-04-13 07:50:05 51°15.783 2°53.797 -999 -999 -999 -999 -999
2007-04-13 07:50:10 51°15.799 2°53.785 -999 -999 -999 -999 -999
2007-04-13 07:50:15 51°15.816 2°53.772 -999 -999 -999 -999 -999
2007-04-13 07:50:20 51°15.833 2°53.76 -999 -999 -999 -999 -999
2007-04-13 07:50:25 51°15.849 2°53.747 -999 -999 -999 -999 -999
2007-04-13 07:50:30 51°15.866 2°53.735 -999 -999 -999 -999 -999
2007-04-13 07:50:35 51°15.883 2°53.722 -999 -999 -999 -999 -999
2007-04-13 07:50:40 51°15.899 2°53.71 -999 -999 -999 -999 -999
2007-04-13 07:50:45 51°15.916 2°53.698 -999 -999 -999 -999 -999
2007-04-13 07:50:50 51°15.933 2°53.686 -999 -999 -999 -999 -999
2007-04-13 07:50:55 51°15.95 2°53.674 -999 -999 -999 -999 -999
2007-04-13 07:51:00 51°15.967 2°53.662 -999 -999 -999 -999 -999
2007-04-13 07:51:05 51°15.984 2°53.65 -999 -999 -999 -999 -999
2007-04-13 07:51:10 51°16.001 2°53.638 -999 -999 -999 -999 -999
2007-04-13 07:51:15 51°16.018 2°53.626 -999 -999 -999 -999 -999
2007-04-13 07:51:20 51°16.034 2°53.613 -999 -999 -999 -999 -999
2007-04-13 07:51:25 51°16.051 2°53.601 -999 -999 -999 -999 -999
2007-04-13 07:51:30 51°16.067 2°53.588 -999 -999 -999 -999 -999
2007-04-13 07:51:35 51°16.084 2°53.575 -999 -999 -999 -999 -999
2007-04-13 07:51:40 51°16.101 2°53.563 -999 -999 -999 -999 -999
2007-04-13 07:51:45 51°16.117 2°53.55 -999 -999 -999 -999 -999
2007-04-13 07:51:50 51°16.134 2°53.537 -999 -999 -999 -999 -999
2007-04-13 07:51:55 51°16.15 2°53.525 -999 -999 -999 -999 -999
2007-04-13 07:52:00 51°16.167 2°53.512 -999 -999 -999 -999 -999
2007-04-13 07:52:05 51°16.183 2°53.499 -999 -999 -999 -999 -999
2007-04-13 07:52:10 51°16.199 2°53.486 -999 -999 -999 -999 -999
2007-04-13 07:52:15 51°16.216 2°53.474 -999 -999 -999 -999 -999
2007-04-13 07:52:20 51°16.233 2°53.462 -999 -999 -999 -999 -999
2007-04-13 07:52:25 51°16.25 2°53.449 -999 -999 -999 -999 -999
2007-04-13 07:52:30 51°16.266 2°53.437 -999 -999 -999 -999 -999
2007-04-13 07:52:35 51°16.283 2°53.425 -999 -999 -999 -999 -999
2007-04-13 07:52:40 51°16.3 2°53.412 -999 -999 -999 -999 -999
2007-04-13 07:52:45 51°16.316 2°53.399 -999 -999 -999 -999 -999
2007-04-13 07:52:50 51°16.333 2°53.387 -999 -999 -999 -999 -999
2007-04-13 07:52:55 51°16.349 2°53.374 -999 -999 -999 -999 -999
2007-04-13 07:53:00 51°16.365 2°53.362 -999 -999 -999 -999 -999
2007-04-13 07:53:05 51°16.382 2°53.349 -999 -999 -999 -999 -999
2007-04-13 07:53:10 51°16.398 2°53.336 -999 -999 -999 -999 -999
2007-04-13 07:53:15 51°16.414 2°53.322 -999 -999 -999 -999 -999
2007-04-13 07:53:20 51°16.43 2°53.309 -999 -999 -999 -999 -999
2007-04-13 07:53:25 51°16.447 2°53.295 -999 -999 -999 -999 -999
2007-04-13 07:53:30 51°16.463 2°53.282 -999 -999 -999 -999 -999
2007-04-13 07:53:35 51°16.479 2°53.268 -999 -999 -999 -999 -999
2007-04-13 07:53:40 51°16.494 2°53.255 -999 -999 -999 -999 -999
2007-04-13 07:53:45 51°16.511 2°53.241 -999 -999 -999 -999 -999
2007-04-13 07:53:50 51°16.527 2°53.228 -999 -999 -999 -999 -999
2007-04-13 07:53:55 51°16.543 2°53.214 -999 -999 -999 -999 -999
2007-04-13 07:54:00 51°16.559 2°53.2 -999 -999 -999 -999 -999
2007-04-13 07:54:05 51°16.575 2°53.187 -999 -999 -999 -999 -999
2007-04-13 07:54:10 51°16.591 2°53.173 -999 -999 -999 -999 -999
2007-04-13 07:54:15 51°16.608 2°53.159 -999 -999 -999 -999 -999
2007-04-13 07:54:20 51°16.624 2°53.145 -999 -999 -999 -999 -999
2007-04-13 07:54:25 51°16.64 2°53.132 -999 -999 -999 -999 -999
2007-04-13 07:54:30 51°16.656 2°53.118 -999 -999 -999 -999 -999
2007-04-13 07:54:35 51°16.672 2°53.104 -999 -999 -999 -999 -999
2007-04-13 07:54:40 51°16.688 2°53.09 -999 -999 -999 -999 -999
2007-04-13 07:54:45 51°16.704 2°53.075 -999 -999 -999 -999 -999
2007-04-13 07:54:50 51°16.72 2°53.061 -999 -999 -999 -999 -999
2007-04-13 07:54:55 51°16.736 2°53.048 -999 -999 -999 -999 -999
2007-04-13 07:55:00 51°16.753 2°53.034 -999 -999 -999 -999 -999
2007-04-13 07:55:05 51°16.769 2°53.02 -999 -999 -999 -999 -999
2007-04-13 07:55:10 51°16.785 2°53.007 -999 -999 -999 -999 -999
2007-04-13 07:55:15 51°16.802 2°52.993 -999 -999 -999 -999 -999
2007-04-13 07:55:20 51°16.817 2°52.979 -999 -999 -999 -999 -999
2007-04-13 07:55:25 51°16.833 2°52.965 -999 -999 -999 -999 -999
2007-04-13 07:55:30 51°16.849 2°52.951 -999 -999 -999 -999 -999
2007-04-13 07:55:35 51°16.865 2°52.937 -999 -999 -999 -999 -999
2007-04-13 07:55:40 51°16.88 2°52.924 -999 -999 -999 -999 -999
2007-04-13 07:55:45 51°16.896 2°52.91 -999 -999 -999 -999 -999
2007-04-13 07:55:50 51°16.913 2°52.897 -999 -999 -999 -999 -999
2007-04-13 07:55:55 51°16.928 2°52.883 -999 -999 -999 -999 -999
2007-04-13 07:56:00 51°16.944 2°52.869 -999 -999 -999 -999 -999
2007-04-13 07:56:05 51°16.961 2°52.855 -999 -999 -999 -999 -999
2007-04-13 07:56:10 51°16.977 2°52.841 -999 -999 -999 -999 -999
2007-04-13 07:56:15 51°16.994 2°52.827 -999 -999 -999 -999 -999
2007-04-13 07:56:20 51°17.01 2°52.813 -999 -999 -999 -999 -999
2007-04-13 07:56:25 51°17.025 2°52.798 -999 -999 -999 -999 -999
2007-04-13 07:56:30 51°17.042 2°52.784 -999 -999 -999 -999 -999
2007-04-13 07:56:35 51°17.058 2°52.771 -999 -999 -999 -999 -999
2007-04-13 07:56:40 51°17.074 2°52.757 -999 -999 -999 -999 -999
2007-04-13 07:56:45 51°17.091 2°52.742 -999 -999 -999 -999 -999
2007-04-13 07:56:50 51°17.106 2°52.727 -999 -999 -999 -999 -999
2007-04-13 07:56:55 51°17.123 2°52.713 -999 -999 -999 -999 -999
2007-04-13 07:57:00 51°17.139 2°52.7 -999 -999 -999 -999 -999
2007-04-13 07:57:05 51°17.156 2°52.686 -999 -999 -999 -999 -999
2007-04-13 07:57:10 51°17.172 2°52.673 -999 -999 -999 -999 -999
2007-04-13 07:57:15 51°17.188 2°52.661 -999 -999 -999 -999 -999
2007-04-13 07:57:20 51°17.205 2°52.647 -999 -999 -999 -999 -999
2007-04-13 07:57:25 51°17.223 2°52.636 -999 -999 -999 -999 -999
2007-04-13 07:57:30 51°17.241 2°52.626 -999 -999 -999 -999 -999
2007-04-13 07:57:35 51°17.258 2°52.617 -999 -999 -999 -999 -999
2007-04-13 07:57:40 51°17.276 2°52.608 -999 -999 -999 -999 -999
2007-04-13 07:57:45 51°17.294 2°52.602 -999 -999 -999 -999 -999
2007-04-13 07:57:50 51°17.313 2°52.596 -999 -999 -999 -999 -999
2007-04-13 07:57:55 51°17.331 2°52.591 -999 -999 -999 -999 -999
2007-04-13 07:58:00 51°17.35 2°52.586 -999 -999 -999 -999 -999
2007-04-13 07:58:05 51°17.369 2°52.582 -999 -999 -999 -999 -999
2007-04-13 07:58:10 51°17.387 2°52.579 -999 -999 -999 -999 -999
2007-04-13 07:58:15 51°17.406 2°52.576 -999 -999 -999 -999 -999
2007-04-13 07:58:20 51°17.425 2°52.574 -999 -999 -999 -999 -999
2007-04-13 07:58:25 51°17.444 2°52.572 -999 -999 -999 -999 -999
2007-04-13 07:58:30 51°17.463 2°52.571 -999 -999 -999 -999 -999
2007-04-13 07:58:35 51°17.481 2°52.569 -999 -999 -999 -999 -999
2007-04-13 07:58:40 51°17.5 2°52.568 -999 -999 -999 -999 -999
2007-04-13 07:58:45 51°17.52 2°52.566 -999 -999 -999 -999 -999
2007-04-13 07:58:50 51°17.538 2°52.565 -999 -999 -999 -999 -999
2007-04-13 07:58:55 51°17.557 2°52.563 -999 -999 -999 -999 -999
2007-04-13 07:59:00 51°17.576 2°52.561 -999 -999 -999 -999 -999
2007-04-13 07:59:05 51°17.595 2°52.559 -999 -999 -999 -999 -999
2007-04-13 07:59:10 51°17.614 2°52.557 -999 -999 -999 -999 -999
2007-04-13 07:59:15 51°17.634 2°52.555 -999 -999 -999 -999 -999
2007-04-13 07:59:20 51°17.652 2°52.553 -999 -999 -999 -999 -999
2007-04-13 07:59:25 51°17.671 2°52.55 -999 -999 -999 -999 -999
2007-04-13 07:59:30 51°17.69 2°52.548 -999 -999 -999 -999 -999
2007-04-13 07:59:36 51°17.713 2°52.546 -999 -999 -999 -999 -999
2007-04-13 07:59:41 51°17.732 2°52.544 -999 -999 -999 -999 -999
2007-04-13 07:59:46 51°17.751 2°52.542 -999 -999 -999 -999 -999
2007-04-13 07:59:51 51°17.77 2°52.539 -999 -999 -999 -999 -999
2007-04-13 07:59:56 51°17.789 2°52.537 -999 -999 -999 -999 -999
2007-04-13 08:00:01 51°17.808 2°52.535 -999 -999 -999 -999 -999
2007-04-13 08:00:06 51°17.826 2°52.533 -999 -999 -999 -999 -999
2007-04-13 08:00:11 51°17.845 2°52.531 -999 -999 -999 -999 -999
2007-04-13 08:00:16 51°17.864 2°52.53 -999 -999 -999 -999 -999
2007-04-13 08:00:21 51°17.883 2°52.528 -999 -999 -999 -999 -999
2007-04-13 08:00:26 51°17.902 2°52.526 -999 -999 -999 -999 -999
2007-04-13 08:00:31 51°17.922 2°52.527 -999 -999 -999 -999 -999
2007-04-13 08:00:36 51°17.94 2°52.528 -999 -999 -999 -999 -999
2007-04-13 08:00:41 51°17.96 2°52.532 -999 -999 -999 -999 -999
2007-04-13 08:00:46 51°17.979 2°52.535 -999 -999 -999 -999 -999
2007-04-13 08:00:51 51°17.998 2°52.539 -999 -999 -999 -999 -999
2007-04-13 08:00:56 51°18.017 2°52.543 -999 -999 -999 -999 -999
2007-04-13 08:01:01 51°18.036 2°52.548 -999 -999 -999 -999 -999
2007-04-13 08:01:06 51°18.054 2°52.552 -999 -999 -999 -999 -999
2007-04-13 08:01:11 51°18.073 2°52.557 -999 -999 -999 -999 -999
2007-04-13 08:01:16 51°18.092 2°52.562 -999 -999 -999 -999 -999
2007-04-13 08:01:21 51°18.111 2°52.567 -999 -999 -999 -999 -999
2007-04-13 08:01:26 51°18.13 2°52.571 -999 -999 -999 -999 -999
2007-04-13 08:01:31 51°18.149 2°52.576 -999 -999 -999 -999 -999
2007-04-13 08:01:36 51°18.168 2°52.58 -999 -999 -999 -999 -999
2007-04-13 08:01:41 51°18.187 2°52.584 -999 -999 -999 -999 -999
2007-04-13 08:01:46 51°18.206 2°52.589 -999 -999 -999 -999 -999
2007-04-13 08:01:51 51°18.225 2°52.594 -999 -999 -999 -999 -999
2007-04-13 08:01:56 51°18.243 2°52.599 -999 -999 -999 -999 -999
2007-04-13 08:02:01 51°18.262 2°52.608 -999 -999 -999 -999 -999
2007-04-13 08:02:06 51°18.28 2°52.618 -999 -999 -999 -999 -999
2007-04-13 08:02:11 51°18.297 2°52.63 -999 -999 -999 -999 -999
2007-04-13 08:02:16 51°18.315 2°52.643 -999 -999 -999 -999 -999
2007-04-13 08:02:21 51°18.331 2°52.659 -999 -999 -999 -999 -999
2007-04-13 08:02:26 51°18.347 2°52.676 -999 -999 -999 -999 -999
2007-04-13 08:02:31 51°18.363 2°52.694 -999 -999 -999 -999 -999
2007-04-13 08:02:36 51°18.378 2°52.713 -999 -999 -999 -999 -999
2007-04-13 08:02:41 51°18.393 2°52.731 -999 -999 -999 -999 -999
2007-04-13 08:02:46 51°18.407 2°52.751 -999 -999 -999 -999 -999
2007-04-13 08:02:51 51°18.422 2°52.771 -999 -999 -999 -999 -999
2007-04-13 08:02:56 51°18.435 2°52.794 -999 -999 -999 -999 -999
2007-04-13 08:03:01 51°18.449 2°52.816 -999 -999 -999 -999 -999
2007-04-13 08:03:06 51°18.462 2°52.839 -999 -999 -999 -999 -999
2007-04-13 08:03:11 51°18.475 2°52.863 -999 -999 -999 -999 -999
2007-04-13 08:03:16 51°18.487 2°52.887 -999 -999 -999 -999 -999
2007-04-13 08:03:21 51°18.5 2°52.91 -999 -999 -999 -999 -999
2007-04-13 08:03:26 51°18.512 2°52.933 -999 -999 -999 -999 -999
2007-04-13 08:03:31 51°18.525 2°52.956 -999 -999 -999 -999 -999
2007-04-13 08:03:36 51°18.538 2°52.979 -999 -999 -999 -999 -999
2007-04-13 08:03:41 51°18.552 2°53.002 -999 -999 -999 -999 -999
2007-04-13 08:03:46 51°18.565 2°53.024 -999 -999 -999 -999 -999
2007-04-13 08:03:51 51°18.578 2°53.046 -999 -999 -999 -999 -999
2007-04-13 08:03:56 51°18.592 2°53.069 -999 -999 -999 -999 -999
2007-04-13 08:04:01 51°18.606 2°53.091 -999 -999 -999 -999 -999
2007-04-13 08:04:06 51°18.619 2°53.113 -999 -999 -999 -999 -999
2007-04-13 08:04:11 51°18.633 2°53.135 -999 -999 -999 -999 -999
2007-04-13 08:04:16 51°18.647 2°53.157 -999 -999 -999 -999 -999
2007-04-13 08:04:21 51°18.66 2°53.178 -999 -999 -999 -999 -999
2007-04-13 08:04:26 51°18.674 2°53.2 -999 -999 -999 -999 -999
2007-04-13 08:04:31 51°18.688 2°53.222 -999 -999 -999 -999 -999
2007-04-13 08:04:36 51°18.702 2°53.244 -999 -999 -999 -999 -999
2007-04-13 08:04:41 51°18.716 2°53.266 -999 -999 -999 -999 -999
2007-04-13 08:04:46 51°18.73 2°53.288 -999 -999 -999 -999 -999
2007-04-13 08:04:51 51°18.743 2°53.31 -999 -999 -999 -999 -999
2007-04-13 08:04:56 51°18.757 2°53.331 -999 -999 -999 -999 -999
2007-04-13 08:05:01 51°18.771 2°53.353 -999 -999 -999 -999 -999
2007-04-13 08:05:06 51°18.785 2°53.375 -999 -999 -999 -999 -999
2007-04-13 08:05:11 51°18.799 2°53.397 -999 -999 -999 -999 -999
2007-04-13 08:05:16 51°18.813 2°53.418 -999 -999 -999 -999 -999
2007-04-13 08:05:21 51°18.827 2°53.44 -999 -999 -999 -999 -999
2007-04-13 08:05:26 51°18.841 2°53.462 -999 -999 -999 -999 -999
2007-04-13 08:05:31 51°18.855 2°53.484 -999 -999 -999 -999 -999
2007-04-13 08:05:36 51°18.869 2°53.506 -999 -999 -999 -999 -999
2007-04-13 08:05:41 51°18.883 2°53.528 -999 -999 -999 -999 -999
2007-04-13 08:05:46 51°18.897 2°53.55 -999 -999 -999 -999 -999
2007-04-13 08:05:51 51°18.91 2°53.572 -999 -999 -999 -999 -999
2007-04-13 08:05:56 51°18.924 2°53.594 -999 -999 -999 -999 -999
2007-04-13 08:06:01 51°18.938 2°53.616 -999 -999 -999 -999 -999
2007-04-13 08:06:06 51°18.952 2°53.638 -999 -999 -999 -999 -999
2007-04-13 08:06:11 51°18.966 2°53.66 -999 -999 -999 -999 -999
2007-04-13 08:06:16 51°18.979 2°53.682 -999 -999 -999 -999 -999
2007-04-13 08:06:21 51°18.993 2°53.704 -999 -999 -999 -999 -999
2007-04-13 08:06:26 51°19.007 2°53.726 -999 -999 -999 -999 -999
2007-04-13 08:06:31 51°19.021 2°53.748 -999 -999 -999 -999 -999
2007-04-13 08:06:36 51°19.035 2°53.77 -999 -999 -999 -999 -999
2007-04-13 08:06:41 51°19.049 2°53.792 -999 -999 -999 -999 -999
2007-04-13 08:06:46 51°19.062 2°53.813 -999 -999 -999 -999 -999
2007-04-13 08:06:51 51°19.076 2°53.835 -999 -999 -999 -999 -999
2007-04-13 08:06:56 51°19.09 2°53.857 -999 -999 -999 -999 -999
2007-04-13 08:07:01 51°19.104 2°53.879 -999 -999 -999 -999 -999
2007-04-13 08:07:06 51°19.118 2°53.901 -999 -999 -999 -999 -999
2007-04-13 08:07:11 51°19.131 2°53.924 -999 -999 -999 -999 -999
2007-04-13 08:07:16 51°19.144 2°53.946 -999 -999 -999 -999 -999
2007-04-13 08:07:21 51°19.158 2°53.969 -999 -999 -999 -999 -999
2007-04-13 08:07:26 51°19.171 2°53.991 -999 -999 -999 -999 -999
2007-04-13 08:07:31 51°19.185 2°54.014 -999 -999 -999 -999 -999
2007-04-13 08:07:36 51°19.198 2°54.036 -999 -999 -999 -999 -999
2007-04-13 08:07:41 51°19.212 2°54.059 -999 -999 -999 -999 -999
2007-04-13 08:07:46 51°19.225 2°54.081 -999 -999 -999 -999 -999
2007-04-13 08:07:51 51°19.239 2°54.104 -999 -999 -999 -999 -999
2007-04-13 08:07:56 51°19.252 2°54.126 -999 -999 -999 -999 -999
2007-04-13 08:08:01 51°19.265 2°54.149 -999 -999 -999 -999 -999
2007-04-13 08:08:06 51°19.279 2°54.171 -999 -999 -999 -999 -999
2007-04-13 08:08:11 51°19.292 2°54.194 -999 -999 -999 -999 -999
2007-04-13 08:08:16 51°19.306 2°54.216 -999 -999 -999 -999 -999
2007-04-13 08:08:21 51°19.319 2°54.239 -999 -999 -999 -999 -999
2007-04-13 08:08:26 51°19.332 2°54.262 -999 -999 -999 -999 -999
2007-04-13 08:08:31 51°19.346 2°54.285 -999 -999 -999 -999 -999
2007-04-13 08:08:36 51°19.359 2°54.307 -999 -999 -999 -999 -999
2007-04-13 08:08:41 51°19.373 2°54.33 -999 -999 -999 -999 -999
2007-04-13 08:08:46 51°19.386 2°54.352 -999 -999 -999 -999 -999
2007-04-13 08:08:51 51°19.399 2°54.374 -999 -999 -999 -999 -999
2007-04-13 08:08:56 51°19.413 2°54.397 -999 -999 -999 -999 -999
2007-04-13 08:09:01 51°19.426 2°54.419 -999 -999 -999 -999 -999
2007-04-13 08:09:06 51°19.44 2°54.441 -999 -999 -999 -999 -999
2007-04-13 08:09:11 51°19.454 2°54.464 -999 -999 -999 -999 -999
2007-04-13 08:09:16 51°19.467 2°54.486 -999 -999 -999 -999 -999
2007-04-13 08:09:21 51°19.481 2°54.509 -999 -999 -999 -999 -999
2007-04-13 08:09:26 51°19.494 2°54.531 -999 -999 -999 -999 -999
2007-04-13 08:09:31 51°19.508 2°54.554 -999 -999 -999 -999 -999
2007-04-13 08:09:36 51°19.521 2°54.576 -999 -999 -999 -999 -999
2007-04-13 08:09:41 51°19.535 2°54.599 -999 -999 -999 -999 -999
2007-04-13 08:09:46 51°19.548 2°54.621 -999 -999 -999 -999 -999
2007-04-13 08:09:51 51°19.562 2°54.644 -999 -999 -999 -999 -999
2007-04-13 08:09:56 51°19.576 2°54.666 -999 -999 -999 -999 -999
2007-04-13 08:10:01 51°19.59 2°54.688 -999 -999 -999 -999 -999
2007-04-13 08:10:06 51°19.603 2°54.711 -999 -999 -999 -999 -999
2007-04-13 08:10:11 51°19.617 2°54.733 -999 -999 -999 -999 -999
2007-04-13 08:10:16 51°19.63 2°54.756 -999 -999 -999 -999 -999
2007-04-13 08:10:21 51°19.644 2°54.778 -999 -999 -999 -999 -999
2007-04-13 08:10:26 51°19.658 2°54.8 -999 -999 -999 -999 -999
2007-04-13 08:10:31 51°19.671 2°54.823 -999 -999 -999 -999 -999
2007-04-13 08:10:36 51°19.684 2°54.846 -999 -999 -999 -999 -999
2007-04-13 08:10:41 51°19.698 2°54.869 -999 -999 -999 -999 -999
2007-04-13 08:10:46 51°19.711 2°54.893 -999 -999 -999 -999 -999
2007-04-13 08:10:51 51°19.723 2°54.916 -999 -999 -999 -999 -999
2007-04-13 08:10:56 51°19.736 2°54.94 -999 -999 -999 -999 -999
2007-04-13 08:11:01 51°19.749 2°54.963 -999 -999 -999 -999 -999
2007-04-13 08:11:06 51°19.762 2°54.987 -999 -999 -999 -999 -999
2007-04-13 08:11:11 51°19.775 2°55.011 -999 -999 -999 -999 -999
2007-04-13 08:11:16 51°19.787 2°55.034 -999 -999 -999 -999 -999
2007-04-13 08:11:21 51°19.8 2°55.057 -999 -999 -999 -999 -999
2007-04-13 08:11:26 51°19.813 2°55.081 -999 -999 -999 -999 -999
2007-04-13 08:11:31 51°19.826 2°55.104 -999 -999 -999 -999 -999
2007-04-13 08:11:36 51°19.839 2°55.128 -999 -999 -999 -999 -999
2007-04-13 08:11:41 51°19.852 2°55.151 -999 -999 -999 -999 -999
2007-04-13 08:11:46 51°19.865 2°55.175 -999 -999 -999 -999 -999
2007-04-13 08:11:51 51°19.878 2°55.198 -999 -999 -999 -999 -999
2007-04-13 08:11:56 51°19.89 2°55.221 -999 -999 -999 -999 -999
2007-04-13 08:12:01 51°19.903 2°55.245 -999 -999 -999 -999 -999
2007-04-13 08:12:06 51°19.916 2°55.268 -999 -999 -999 -999 -999
2007-04-13 08:12:11 51°19.929 2°55.292 -999 -999 -999 -999 -999
2007-04-13 08:12:16 51°19.942 2°55.315 -999 -999 -999 -999 -999
2007-04-13 08:12:21 51°19.955 2°55.339 -999 -999 -999 -999 -999
2007-04-13 08:12:26 51°19.968 2°55.362 -999 -999 -999 -999 -999
2007-04-13 08:12:31 51°19.98 2°55.386 -999 -999 -999 -999 -999
2007-04-13 08:12:36 51°19.993 2°55.409 -999 -999 -999 -999 -999
2007-04-13 08:12:41 51°20.006 2°55.433 -999 -999 -999 -999 -999
2007-04-13 08:12:46 51°20.019 2°55.456 -999 -999 -999 -999 -999
2007-04-13 08:12:51 51°20.032 2°55.48 -999 -999 -999 -999 -999
2007-04-13 08:12:56 51°20.045 2°55.503 -999 -999 -999 -999 -999
2007-04-13 08:13:01 51°20.058 2°55.527 -999 -999 -999 -999 -999
2007-04-13 08:13:06 51°20.072 2°55.55 -999 -999 -999 -999 -999
2007-04-13 08:13:11 51°20.085 2°55.574 -999 -999 -999 -999 -999
2007-04-13 08:13:16 51°20.098 2°55.597 -999 -999 -999 -999 -999
2007-04-13 08:13:21 51°20.11 2°55.621 -999 -999 -999 -999 -999
2007-04-13 08:13:26 51°20.123 2°55.645 -999 -999 -999 -999 -999
2007-04-13 08:13:31 51°20.135 2°55.669 -999 -999 -999 -999 -999
2007-04-13 08:13:36 51°20.148 2°55.692 -999 -999 -999 -999 -999
2007-04-13 08:13:41 51°20.161 2°55.716 -999 -999 -999 -999 -999
2007-04-13 08:13:46 51°20.175 2°55.739 -999 -999 -999 -999 -999
2007-04-13 08:13:51 51°20.188 2°55.762 -999 -999 -999 -999 -999
2007-04-13 08:13:56 51°20.201 2°55.785 -999 -999 -999 -999 -999
2007-04-13 08:14:01 51°20.214 2°55.809 -999 -999 -999 -999 -999
2007-04-13 08:14:06 51°20.226 2°55.832 -999 -999 -999 -999 -999
2007-04-13 08:14:11 51°20.239 2°55.856 -999 -999 -999 -999 -999
2007-04-13 08:14:16 51°20.252 2°55.879 -999 -999 -999 -999 -999
2007-04-13 08:14:21 51°20.266 2°55.902 -999 -999 -999 -999 -999
2007-04-13 08:14:26 51°20.279 2°55.926 -999 -999 -999 -999 -999
2007-04-13 08:14:31 51°20.292 2°55.95 -999 -999 -999 -999 -999
2007-04-13 08:14:36 51°20.305 2°55.973 -999 -999 -999 -999 -999
2007-04-13 08:14:41 51°20.317 2°55.997 -999 -999 -999 -999 -999
2007-04-13 08:14:46 51°20.33 2°56.02 -999 -999 -999 -999 -999
2007-04-13 08:14:51 51°20.344 2°56.043 -999 -999 -999 -999 -999
2007-04-13 08:14:56 51°20.357 2°56.067 -999 -999 -999 -999 -999
2007-04-13 08:15:01 51°20.37 2°56.09 -999 -999 -999 -999 -999
2007-04-13 08:15:06 51°20.384 2°56.113 -999 -999 -999 -999 -999
2007-04-13 08:15:11 51°20.397 2°56.137 -999 -999 -999 -999 -999
2007-04-13 08:15:16 51°20.41 2°56.161 -999 -999 -999 -999 -999
2007-04-13 08:15:21 51°20.422 2°56.185 -999 -999 -999 -999 -999
2007-04-13 08:15:26 51°20.435 2°56.209 -999 -999 -999 -999 -999
2007-04-13 08:15:31 51°20.447 2°56.232 -999 -999 -999 -999 -999
2007-04-13 08:15:36 51°20.461 2°56.256 -999 -999 -999 -999 -999
2007-04-13 08:15:41 51°20.475 2°56.279 -999 -999 -999 -999 -999
2007-04-13 08:15:46 51°20.488 2°56.302 -999 -999 -999 -999 -999
2007-04-13 08:15:51 51°20.501 2°56.325 -999 -999 -999 -999 -999
2007-04-13 08:15:56 51°20.514 2°56.349 -999 -999 -999 -999 -999
2007-04-13 08:16:01 51°20.527 2°56.373 -999 -999 -999 -999 -999
2007-04-13 08:16:06 51°20.541 2°56.396 -999 -999 -999 -999 -999
2007-04-13 08:16:11 51°20.554 2°56.42 -999 -999 -999 -999 -999
2007-04-13 08:16:16 51°20.566 2°56.443 -999 -999 -999 -999 -999
2007-04-13 08:16:21 51°20.579 2°56.466 -999 -999 -999 -999 -999
2007-04-13 08:16:26 51°20.592 2°56.49 -999 -999 -999 -999 -999
2007-04-13 08:16:31 51°20.606 2°56.513 -999 -999 -999 -999 -999
2007-04-13 08:16:36 51°20.619 2°56.537 -999 -999 -999 -999 -999
2007-04-13 08:16:41 51°20.631 2°56.561 -999 -999 -999 -999 -999
2007-04-13 08:16:46 51°20.644 2°56.584 -999 -999 -999 -999 -999
2007-04-13 08:16:51 51°20.657 2°56.608 -999 -999 -999 -999 -999
2007-04-13 08:16:56 51°20.671 2°56.631 -999 -999 -999 -999 -999
2007-04-13 08:17:01 51°20.684 2°56.655 -999 -999 -999 -999 -999
2007-04-13 08:17:06 51°20.696 2°56.679 -999 -999 -999 -999 -999
2007-04-13 08:17:11 51°20.709 2°56.703 -999 -999 -999 -999 -999
2007-04-13 08:17:16 51°20.722 2°56.727 -999 -999 -999 -999 -999
2007-04-13 08:17:21 51°20.734 2°56.752 -999 -999 -999 -999 -999
2007-04-13 08:17:26 51°20.747 2°56.776 -999 -999 -999 -999 -999
2007-04-13 08:17:31 51°20.759 2°56.801 -999 -999 -999 -999 -999
2007-04-13 08:17:36 51°20.771 2°56.825 -999 -999 -999 -999 -999
2007-04-13 08:17:41 51°20.783 2°56.85 -999 -999 -999 -999 -999
2007-04-13 08:17:46 51°20.795 2°56.875 -999 -999 -999 -999 -999
2007-04-13 08:17:51 51°20.806 2°56.9 -999 -999 -999 -999 -999
2007-04-13 08:17:56 51°20.818 2°56.925 -999 -999 -999 -999 -999
2007-04-13 08:18:01 51°20.829 2°56.95 -999 -999 -999 -999 -999
2007-04-13 08:18:06 51°20.841 2°56.975 -999 -999 -999 -999 -999
2007-04-13 08:18:11 51°20.853 2°57 -999 -999 -999 -999 -999
2007-04-13 08:18:16 51°20.865 2°57.025 -999 -999 -999 -999 -999
2007-04-13 08:18:21 51°20.876 2°57.051 -999 -999 -999 -999 -999
2007-04-13 08:18:26 51°20.888 2°57.076 -999 -999 -999 -999 -999
2007-04-13 08:18:31 51°20.9 2°57.101 -999 -999 -999 -999 -999
2007-04-13 08:18:36 51°20.912 2°57.126 -999 -999 -999 -999 -999
2007-04-13 08:18:41 51°20.923 2°57.151 -999 -999 -999 -999 -999
2007-04-13 08:18:46 51°20.935 2°57.176 -999 -999 -999 -999 -999
2007-04-13 08:18:51 51°20.947 2°57.201 -999 -999 -999 -999 -999
2007-04-13 08:18:56 51°20.959 2°57.226 -999 -999 -999 -999 -999
2007-04-13 08:19:01 51°20.971 2°57.251 -999 -999 -999 -999 -999
2007-04-13 08:19:06 51°20.982 2°57.276 -999 -999 -999 -999 -999
2007-04-13 08:19:11 51°20.994 2°57.301 -999 -999 -999 -999 -999
2007-04-13 08:19:16 51°21.006 2°57.326 -999 -999 -999 -999 -999
2007-04-13 08:19:21 51°21.018 2°57.351 -999 -999 -999 -999 -999
2007-04-13 08:19:26 51°21.029 2°57.376 -999 -999 -999 -999 -999
2007-04-13 08:19:31 51°21.041 2°57.401 -999 -999 -999 -999 -999
2007-04-13 08:19:36 51°21.053 2°57.426 -999 -999 -999 -999 -999
2007-04-13 08:19:41 51°21.065 2°57.451 -999 -999 -999 -999 -999
2007-04-13 08:19:46 51°21.077 2°57.476 -999 -999 -999 -999 -999
2007-04-13 08:19:51 51°21.088 2°57.501 -999 -999 -999 -999 -999
2007-04-13 08:19:56 51°21.101 2°57.526 -999 -999 -999 -999 -999
2007-04-13 08:20:01 51°21.112 2°57.551 -999 -999 -999 -999 -999
2007-04-13 08:20:06 51°21.124 2°57.576 -999 -999 -999 -999 -999
2007-04-13 08:20:11 51°21.136 2°57.601 -999 -999 -999 -999 -999
2007-04-13 08:20:16 51°21.148 2°57.625 -999 -999 -999 -999 -999
2007-04-13 08:20:21 51°21.16 2°57.651 -999 -999 -999 -999 -999
2007-04-13 08:20:26 51°21.172 2°57.675 -999 -999 -999 -999 -999
2007-04-13 08:20:31 51°21.184 2°57.7 -999 -999 -999 -999 -999
2007-04-13 08:20:36 51°21.196 2°57.724 -999 -999 -999 -999 -999
2007-04-13 08:20:41 51°21.209 2°57.748 -999 -999 -999 -999 -999
2007-04-13 08:20:46 51°21.221 2°57.773 -999 -999 -999 -999 -999
2007-04-13 08:20:51 51°21.234 2°57.797 -999 -999 -999 -999 -999
2007-04-13 08:20:56 51°21.246 2°57.821 -999 -999 -999 -999 -999
2007-04-13 08:21:01 51°21.258 2°57.845 -999 -999 -999 -999 -999
2007-04-13 08:21:06 51°21.271 2°57.869 -999 -999 -999 -999 -999
2007-04-13 08:21:11 51°21.284 2°57.893 -999 -999 -999 -999 -999
2007-04-13 08:21:16 51°21.296 2°57.918 -999 -999 -999 -999 -999
2007-04-13 08:21:21 51°21.308 2°57.942 -999 -999 -999 -999 -999
2007-04-13 08:21:26 51°21.321 2°57.966 -999 -999 -999 -999 -999
2007-04-13 08:21:31 51°21.333 2°57.99 -999 -999 -999 -999 -999
2007-04-13 08:21:36 51°21.345 2°58.014 -999 -999 -999 -999 -999
2007-04-13 08:21:41 51°21.358 2°58.038 -999 -999 -999 -999 -999
2007-04-13 08:21:46 51°21.371 2°58.062 -999 -999 -999 -999 -999
2007-04-13 08:21:51 51°21.384 2°58.085 -999 -999 -999 -999 -999
2007-04-13 08:21:56 51°21.396 2°58.108 -999 -999 -999 -999 -999
2007-04-13 08:22:01 51°21.41 2°58.131 -999 -999 -999 -999 -999
2007-04-13 08:22:06 51°21.423 2°58.155 -999 -999 -999 -999 -999
2007-04-13 08:22:11 51°21.436 2°58.178 -999 -999 -999 -999 -999
2007-04-13 08:22:16 51°21.449 2°58.201 -999 -999 -999 -999 -999
2007-04-13 08:22:21 51°21.462 2°58.224 -999 -999 -999 -999 -999
2007-04-13 08:22:26 51°21.475 2°58.247 -999 -999 -999 -999 -999
2007-04-13 08:22:31 51°21.488 2°58.271 -999 -999 -999 -999 -999
2007-04-13 08:22:36 51°21.501 2°58.294 -999 -999 -999 -999 -999
2007-04-13 08:22:41 51°21.515 2°58.317 -999 -999 -999 -999 -999
2007-04-13 08:22:46 51°21.528 2°58.341 -999 -999 -999 -999 -999
2007-04-13 08:22:51 51°21.541 2°58.364 -999 -999 -999 -999 -999
2007-04-13 08:22:56 51°21.554 2°58.387 -999 -999 -999 -999 -999
2007-04-13 08:23:01 51°21.567 2°58.411 -999 -999 -999 -999 -999
2007-04-13 08:23:06 51°21.58 2°58.434 -999 -999 -999 -999 -999
2007-04-13 08:23:11 51°21.593 2°58.458 -999 -999 -999 -999 -999
2007-04-13 08:23:16 51°21.607 2°58.481 -999 -999 -999 -999 -999
2007-04-13 08:23:21 51°21.62 2°58.504 -999 -999 -999 -999 -999
2007-04-13 08:23:26 51°21.633 2°58.528 -999 -999 -999 -999 -999
2007-04-13 08:23:31 51°21.646 2°58.551 -999 -999 -999 -999 -999
2007-04-13 08:23:36 51°21.659 2°58.574 -999 -999 -999 -999 -999
2007-04-13 08:23:41 51°21.672 2°58.597 -999 -999 -999 -999 -999
2007-04-13 08:23:46 51°21.685 2°58.621 -999 -999 -999 -999 -999
2007-04-13 08:23:51 51°21.699 2°58.644 -999 -999 -999 -999 -999
2007-04-13 08:23:56 51°21.711 2°58.667 -999 -999 -999 -999 -999
2007-04-13 08:24:01 51°21.725 2°58.69 -999 -999 -999 -999 -999
2007-04-13 08:24:06 51°21.739 2°58.713 -999 -999 -999 -999 -999
2007-04-13 08:24:11 51°21.752 2°58.735 -999 -999 -999 -999 -999
2007-04-13 08:24:16 51°21.766 2°58.757 -999 -999 -999 -999 -999
2007-04-13 08:24:21 51°21.78 2°58.78 -999 -999 -999 -999 -999
2007-04-13 08:24:26 51°21.794 2°58.801 -999 -999 -999 -999 -999
2007-04-13 08:24:31 51°21.808 2°58.824 -999 -999 -999 -999 -999
2007-04-13 08:24:36 51°21.822 2°58.846 -999 -999 -999 -999 -999
2007-04-13 08:24:41 51°21.836 2°58.869 -999 -999 -999 -999 -999
2007-04-13 08:24:46 51°21.849 2°58.891 -999 -999 -999 -999 -999
2007-04-13 08:24:51 51°21.863 2°58.913 -999 -999 -999 -999 -999
2007-04-13 08:24:56 51°21.877 2°58.935 -999 -999 -999 -999 -999
2007-04-13 08:25:01 51°21.891 2°58.957 -999 -999 -999 -999 -999
2007-04-13 08:25:06 51°21.905 2°58.979 -999 -999 -999 -999 -999
2007-04-13 08:25:11 51°21.92 2°59.001 -999 -999 -999 -999 -999
2007-04-13 08:25:16 51°21.934 2°59.022 -999 -999 -999 -999 -999
2007-04-13 08:25:21 51°21.948 2°59.043 -999 -999 -999 -999 -999
2007-04-13 08:25:26 51°21.962 2°59.065 -999 -999 -999 -999 -999
2007-04-13 08:25:31 51°21.977 2°59.086 -999 -999 -999 -999 -999
2007-04-13 08:25:36 51°21.991 2°59.108 -999 -999 -999 -999 -999
2007-04-13 08:25:41 51°22.005 2°59.13 -999 -999 -999 -999 -999
2007-04-13 08:25:46 51°22.019 2°59.151 -999 -999 -999 -999 -999
2007-04-13 08:25:51 51°22.033 2°59.174 -999 -999 -999 -999 -999
2007-04-13 08:25:56 51°22.047 2°59.195 -999 -999 -999 -999 -999
2007-04-13 08:26:01 51°22.061 2°59.217 -999 -999 -999 -999 -999
2007-04-13 08:26:06 51°22.076 2°59.238 -999 -999 -999 -999 -999
2007-04-13 08:26:11 51°22.09 2°59.26 -999 -999 -999 -999 -999
2007-04-13 08:26:16 51°22.104 2°59.281 -999 -999 -999 -999 -999
2007-04-13 08:26:21 51°22.118 2°59.303 -999 -999 -999 -999 -999
2007-04-13 08:26:26 51°22.133 2°59.325 -999 -999 -999 -999 -999
2007-04-13 08:26:31 51°22.147 2°59.346 -999 -999 -999 -999 -999
2007-04-13 08:26:36 51°22.161 2°59.368 -999 -999 -999 -999 -999
2007-04-13 08:26:41 51°22.175 2°59.39 -999 -999 -999 -999 -999
2007-04-13 08:26:46 51°22.189 2°59.411 -999 -999 -999 -999 -999
2007-04-13 08:26:51 51°22.203 2°59.433 -999 -999 -999 -999 -999
2007-04-13 08:26:56 51°22.218 2°59.454 -999 -999 -999 -999 -999
2007-04-13 08:27:01 51°22.232 2°59.476 -999 -999 -999 -999 -999
2007-04-13 08:27:06 51°22.246 2°59.498 -999 -999 -999 -999 -999
2007-04-13 08:27:11 51°22.261 2°59.519 -999 -999 -999 -999 -999
2007-04-13 08:27:16 51°22.275 2°59.541 -999 -999 -999 -999 -999
2007-04-13 08:27:21 51°22.289 2°59.562 -999 -999 -999 -999 -999
2007-04-13 08:27:26 51°22.303 2°59.584 -999 -999 -999 -999 -999
2007-04-13 08:27:31 51°22.317 2°59.606 -999 -999 -999 -999 -999
2007-04-13 08:27:36 51°22.331 2°59.627 -999 -999 -999 -999 -999
2007-04-13 08:27:41 51°22.346 2°59.649 -999 -999 -999 -999 -999
2007-04-13 08:27:46 51°22.36 2°59.67 -999 -999 -999 -999 -999
2007-04-13 08:27:51 51°22.374 2°59.692 -999 -999 -999 -999 -999
2007-04-13 08:27:56 51°22.389 2°59.713 -999 -999 -999 -999 -999
2007-04-13 08:28:01 51°22.403 2°59.735 -999 -999 -999 -999 -999
2007-04-13 08:28:06 51°22.417 2°59.756 -999 -999 -999 -999 -999
2007-04-13 08:28:11 51°22.431 2°59.778 -999 -999 -999 -999 -999
2007-04-13 08:28:16 51°22.446 2°59.8 -999 -999 -999 -999 -999
2007-04-13 08:28:21 51°22.459 2°59.822 -999 -999 -999 -999 -999
2007-04-13 08:28:26 51°22.474 2°59.844 -999 -999 -999 -999 -999
2007-04-13 08:28:31 51°22.488 2°59.865 -999 -999 -999 -999 -999
2007-04-13 08:28:36 51°22.502 2°59.887 -999 -999 -999 -999 -999
2007-04-13 08:28:40 51°22.513 2°59.905 -999 -999 -999 -999 -999
2007-04-13 08:28:46 51°22.53 2°59.931 -999 -999 -999 -999 -999
2007-04-13 08:28:51 51°22.544 2°59.952 -999 -999 -999 -999 -999
2007-04-13 08:28:56 51°22.558 2°59.974 -999 -999 -999 -999 -999
2007-04-13 08:29:01 51°22.572 2°59.996 -999 -999 -999 -999 -999
2007-04-13 08:29:06 51°22.587 3°0.018 -999 -999 -999 -999 -999
2007-04-13 08:29:11 51°22.601 3°0.04 -999 -999 -999 -999 -999
2007-04-13 08:29:16 51°22.616 3°0.061 -999 -999 -999 -999 -999
2007-04-13 08:29:21 51°22.629 3°0.083 -999 -999 -999 -999 -999
2007-04-13 08:29:26 51°22.643 3°0.105 -999 -999 -999 -999 -999
2007-04-13 08:29:31 51°22.658 3°0.127 -999 -999 -999 -999 -999
2007-04-13 08:29:36 51°22.671 3°0.149 -999 -999 -999 -999 -999
2007-04-13 08:29:41 51°22.686 3°0.17 -999 -999 -999 -999 -999
2007-04-13 08:29:46 51°22.7 3°0.192 -999 -999 -999 -999 -999
2007-04-13 08:29:51 51°22.714 3°0.213 -999 -999 -999 -999 -999
2007-04-13 08:29:56 51°22.729 3°0.234 -999 -999 -999 -999 -999
2007-04-13 08:30:01 51°22.744 3°0.255 -999 -999 -999 -999 -999
2007-04-13 08:30:06 51°22.758 3°0.276 -999 -999 -999 -999 -999
2007-04-13 08:30:11 51°22.773 3°0.297 -999 -999 -999 -999 -999
2007-04-13 08:30:16 51°22.788 3°0.318 -999 -999 -999 -999 -999
2007-04-13 08:30:21 51°22.803 3°0.338 -999 -999 -999 -999 -999
2007-04-13 08:30:26 51°22.818 3°0.359 -999 -999 -999 -999 -999
2007-04-13 08:30:31 51°22.832 3°0.38 -999 -999 -999 -999 -999
2007-04-13 08:30:36 51°22.847 3°0.401 -999 -999 -999 -999 -999
2007-04-13 08:30:41 51°22.861 3°0.423 -999 -999 -999 -999 -999
2007-04-13 08:30:46 51°22.876 3°0.444 -999 -999 -999 -999 -999
2007-04-13 08:30:51 51°22.89 3°0.465 -999 -999 -999 -999 -999
2007-04-13 08:30:56 51°22.905 3°0.486 -999 -999 -999 -999 -999
2007-04-13 08:31:01 51°22.92 3°0.507 -999 -999 -999 -999 -999
2007-04-13 08:31:06 51°22.935 3°0.528 -999 -999 -999 -999 -999
2007-04-13 08:31:11 51°22.95 3°0.549 -999 -999 -999 -999 -999
2007-04-13 08:31:16 51°22.964 3°0.571 -999 -999 -999 -999 -999
2007-04-13 08:31:21 51°22.979 3°0.592 -999 -999 -999 -999 -999
2007-04-13 08:31:26 51°22.994 3°0.613 -999 -999 -999 -999 -999
2007-04-13 08:31:31 51°23.008 3°0.635 -999 -999 -999 -999 -999
2007-04-13 08:31:36 51°23.023 3°0.656 -999 -999 -999 -999 -999
2007-04-13 08:31:41 51°23.038 3°0.677 -999 -999 -999 -999 -999
2007-04-13 08:31:46 51°23.052 3°0.699 -999 -999 -999 -999 -999
2007-04-13 08:31:51 51°23.067 3°0.72 -999 -999 -999 -999 -999
2007-04-13 08:31:56 51°23.082 3°0.742 -999 -999 -999 -999 -999
2007-04-13 08:32:01 51°23.097 3°0.763 -999 -999 -999 -999 -999
2007-04-13 08:32:06 51°23.112 3°0.784 -999 -999 -999 -999 -999
2007-04-13 08:32:11 51°23.127 3°0.804 -999 -999 -999 -999 -999
2007-04-13 08:32:15 51°23.139 3°0.818 -999 -999 -999 -999 -999
2007-04-13 08:32:21 51°23.16 3°0.838 -999 -999 -999 -999 -999
2007-04-13 08:32:26 51°23.177 3°0.853 -999 -999 -999 -999 -999
2007-04-13 08:32:31 51°23.195 3°0.866 -999 -999 -999 -999 -999
2007-04-13 08:32:36 51°23.213 3°0.877 -999 -999 -999 -999 -999
2007-04-13 08:32:40 51°23.227 3°0.885 -999 -999 -999 -999 -999
2007-04-13 08:32:46 51°23.25 3°0.895 -999 -999 -999 -999 -999
2007-04-13 08:32:51 51°23.269 3°0.902 -999 -999 -999 -999 -999
2007-04-13 08:32:56 51°23.288 3°0.908 -999 -999 -999 -999 -999
2007-04-13 08:33:01 51°23.307 3°0.912 -999 -999 -999 -999 -999
2007-04-13 08:33:06 51°23.326 3°0.917 -999 -999 -999 -999 -999
2007-04-13 08:33:11 51°23.345 3°0.921 -999 -999 -999 -999 -999
2007-04-13 08:33:16 51°23.364 3°0.924 -999 -999 -999 -999 -999
2007-04-13 08:33:21 51°23.383 3°0.927 -999 -999 -999 -999 -999
2007-04-13 08:33:26 51°23.403 3°0.93 -999 -999 -999 -999 -999
2007-04-13 08:33:31 51°23.422 3°0.933 -999 -999 -999 -999 -999
2007-04-13 08:33:36 51°23.441 3°0.936 -999 -999 -999 -999 -999
2007-04-13 08:33:40 51°23.456 3°0.938 -999 -999 -999 -999 -999
2007-04-13 08:33:46 51°23.48 3°0.942 -999 -999 -999 -999 -999
2007-04-13 08:33:50 51°23.495 3°0.944 -999 -999 -999 -999 -999
2007-04-13 08:33:56 51°23.518 3°0.948 -999 -999 -999 -999 -999
2007-04-13 08:34:00 51°23.533 3°0.951 -999 -999 -999 -999 -999
2007-04-13 08:34:06 51°23.556 3°0.955 -999 -999 -999 -999 -999
2007-04-13 08:34:10 51°23.572 3°0.958 -999 -999 -999 -999 -999
2007-04-13 08:34:16 51°23.595 3°0.963 -999 -999 -999 -999 -999
2007-04-13 08:34:20 51°23.61 3°0.966 -999 -999 -999 -999 -999
2007-04-13 08:34:26 51°23.634 3°0.97 -999 -999 -999 -999 -999
2007-04-13 08:34:31 51°23.653 3°0.974 -999 -999 -999 -999 -999
2007-04-13 08:34:36 51°23.672 3°0.978 -999 -999 -999 -999 -999
2007-04-13 08:34:40 51°23.687 3°0.981 -999 -999 -999 -999 -999
2007-04-13 08:34:46 51°23.711 3°0.985 -999 -999 -999 -999 -999
2007-04-13 08:34:50 51°23.726 3°0.988 -999 -999 -999 -999 -999
2007-04-13 08:34:56 51°23.749 3°0.993 -999 -999 -999 -999 -999
2007-04-13 08:35:00 51°23.765 3°0.996 -999 -999 -999 -999 -999
2007-04-13 08:35:06 51°23.788 3°1.001 -999 -999 -999 -999 -999
2007-04-13 08:35:10 51°23.803 3°1.005 -999 -999 -999 -999 -999
2007-04-13 08:35:16 51°23.826 3°1.01 -999 -999 -999 -999 -999
2007-04-13 08:35:20 51°23.842 3°1.013 -999 -999 -999 -999 -999
2007-04-13 08:35:26 51°23.865 3°1.018 -999 -999 -999 -999 -999
2007-04-13 08:35:31 51°23.884 3°1.022 -999 -999 -999 -999 -999
2007-04-13 08:35:36 51°23.904 3°1.027 -999 -999 -999 -999 -999
2007-04-13 08:35:40 51°23.919 3°1.03 -999 -999 -999 -999 -999
2007-04-13 08:35:46 51°23.943 3°1.035 -999 -999 -999 -999 -999
2007-04-13 08:35:51 51°23.962 3°1.04 -999 -999 -999 -999 -999
2007-04-13 08:35:56 51°23.982 3°1.044 -999 -999 -999 -999 -999
2007-04-13 08:36:00 51°23.997 3°1.048 -999 -999 -999 -999 -999
2007-04-13 08:36:06 51°24.02 3°1.053 -999 -999 -999 -999 -999
2007-04-13 08:36:10 51°24.036 3°1.057 -999 -999 -999 -999 -999
2007-04-13 08:36:16 51°24.059 3°1.062 -999 -999 -999 -999 -999
2007-04-13 08:36:20 51°24.075 3°1.066 -999 -999 -999 -999 -999
2007-04-13 08:36:26 51°24.098 3°1.071 -999 -999 -999 -999 -999
2007-04-13 08:36:30 51°24.114 3°1.075 -999 -999 -999 -999 -999
2007-04-13 08:36:36 51°24.137 3°1.081 -999 -999 -999 -999 -999
2007-04-13 08:36:40 51°24.153 3°1.085 -999 -999 -999 -999 -999
2007-04-13 08:36:46 51°24.176 3°1.09 -999 -999 -999 -999 -999
2007-04-13 08:36:51 51°24.195 3°1.095 -999 -999 -999 -999 -999
2007-04-13 08:36:56 51°24.214 3°1.1 -999 -999 -999 -999 -999
2007-04-13 08:37:00 51°24.23 3°1.104 -999 -999 -999 -999 -999
2007-04-13 08:37:06 51°24.253 3°1.109 -999 -999 -999 -999 -999
2007-04-13 08:37:10 51°24.268 3°1.112 -999 -999 -999 -999 -999
2007-04-13 08:37:16 51°24.292 3°1.116 -999 -999 -999 -999 -999
2007-04-13 08:37:20 51°24.307 3°1.119 -999 -999 -999 -999 -999
2007-04-13 08:37:26 51°24.33 3°1.123 -999 -999 -999 -999 -999
2007-04-13 08:37:30 51°24.345 3°1.126 -999 -999 -999 -999 -999
2007-04-13 08:37:36 51°24.367 3°1.131 -999 -999 -999 -999 -999
2007-04-13 08:37:40 51°24.382 3°1.134 -999 -999 -999 -999 -999
2007-04-13 08:37:46 51°24.404 3°1.14 -999 -999 -999 -999 -999
2007-04-13 08:37:50 51°24.419 3°1.143 -999 -999 -999 -999 -999
2007-04-13 08:37:56 51°24.442 3°1.149 -999 -999 -999 -999 -999
2007-04-13 08:38:00 51°24.456 3°1.153 -999 -999 -999 -999 -999
2007-04-13 08:38:06 51°24.479 3°1.157 -999 -999 -999 -999 -999
2007-04-13 08:38:10 51°24.494 3°1.161 -999 -999 -999 -999 -999
2007-04-13 08:38:16 51°24.516 3°1.166 -999 -999 -999 -999 -999
2007-04-13 08:38:20 51°24.531 3°1.17 -999 -999 -999 -999 -999
2007-04-13 08:38:26 51°24.553 3°1.174 -999 -999 -999 -999 -999
2007-04-13 08:38:31 51°24.572 3°1.178 -999 -999 -999 -999 -999
2007-04-13 08:38:36 51°24.59 3°1.182 -999 -999 -999 -999 -999
2007-04-13 08:38:40 51°24.605 3°1.185 -999 -999 -999 -999 -999
2007-04-13 08:38:46 51°24.627 3°1.19 -999 -999 -999 -999 -999
2007-04-13 08:38:51 51°24.646 3°1.194 -999 -999 -999 -999 -999
2007-04-13 08:38:56 51°24.664 3°1.198 -999 -999 -999 -999 -999
2007-04-13 08:39:00 51°24.679 3°1.201 -999 -999 -999 -999 -999
2007-04-13 08:39:06 51°24.701 3°1.206 -999 -999 -999 -999 -999
2007-04-13 08:39:11 51°24.72 3°1.21 -999 -999 -999 -999 -999
2007-04-13 08:39:16 51°24.738 3°1.214 -999 -999 -999 -999 -999
2007-04-13 08:39:20 51°24.753 3°1.217 -999 -999 -999 -999 -999
2007-04-13 08:39:26 51°24.775 3°1.222 -999 -999 -999 -999 -999
2007-04-13 08:39:31 51°24.794 3°1.226 -999 -999 -999 -999 -999
2007-04-13 08:39:36 51°24.812 3°1.23 -999 -999 -999 -999 -999
2007-04-13 08:39:40 51°24.827 3°1.234 -999 -999 -999 -999 -999
2007-04-13 08:39:46 51°24.849 3°1.239 -999 -999 -999 -999 -999
2007-04-13 08:39:51 51°24.868 3°1.243 -999 -999 -999 -999 -999
2007-04-13 08:39:56 51°24.886 3°1.247 -999 -999 -999 -999 -999
2007-04-13 08:40:00 51°24.901 3°1.25 -999 -999 -999 -999 -999
2007-04-13 08:40:06 51°24.923 3°1.255 -999 -999 -999 -999 -999
2007-04-13 08:40:10 51°24.938 3°1.258 -999 -999 -999 -999 -999
2007-04-13 08:40:16 51°24.96 3°1.263 -999 -999 -999 -999 -999
2007-04-13 08:40:20 51°24.975 3°1.267 -999 -999 -999 -999 -999
2007-04-13 08:40:26 51°24.997 3°1.272 -999 -999 -999 -999 -999
2007-04-13 08:40:30 51°25.012 3°1.276 -999 -999 -999 -999 -999
2007-04-13 08:40:36 51°25.034 3°1.281 -999 -999 -999 -999 -999
2007-04-13 08:40:40 51°25.049 3°1.285 -999 -999 -999 -999 -999
2007-04-13 08:40:46 51°25.071 3°1.29 -999 -999 -999 -999 -999
2007-04-13 08:40:51 51°25.089 3°1.294 -999 -999 -999 -999 -999
2007-04-13 08:40:56 51°25.108 3°1.299 -999 -999 -999 -999 -999
2007-04-13 08:41:00 51°25.123 3°1.302 -999 -999 -999 -999 -999
2007-04-13 08:41:06 51°25.145 3°1.307 -999 -999 -999 -999 -999
2007-04-13 08:41:11 51°25.164 3°1.311 -999 -999 -999 -999 -999
2007-04-13 08:41:16 51°25.182 3°1.316 -999 -999 -999 -999 -999
2007-04-13 08:41:20 51°25.197 3°1.32 -999 -999 -999 -999 -999
2007-04-13 08:41:26 51°25.219 3°1.325 -999 -999 -999 -999 -999
2007-04-13 08:41:30 51°25.234 3°1.328 -999 -999 -999 -999 -999
2007-04-13 08:41:36 51°25.256 3°1.333 -999 -999 -999 -999 -999
2007-04-13 08:41:40 51°25.271 3°1.337 -999 -999 -999 -999 -999
2007-04-13 08:41:46 51°25.293 3°1.342 -999 -999 -999 -999 -999
2007-04-13 08:41:50 51°25.308 3°1.345 -999 -999 -999 -999 -999
2007-04-13 08:41:56 51°25.33 3°1.351 -999 -999 -999 -999 -999
2007-04-13 08:42:00 51°25.345 3°1.354 -999 -999 -999 -999 -999
2007-04-13 08:42:06 51°25.367 3°1.361 -999 -999 -999 -999 -999
2007-04-13 08:42:10 51°25.382 3°1.367 -999 -999 -999 -999 -999
2007-04-13 08:42:16 51°25.404 3°1.377 -999 -999 -999 -999 -999
2007-04-13 08:42:20 51°25.418 3°1.385 -999 -999 -999 -999 -999
2007-04-13 08:42:26 51°25.439 3°1.397 -999 -999 -999 -999 -999
2007-04-13 08:42:30 51°25.454 3°1.405 -999 -999 -999 -999 -999
2007-04-13 08:42:36 51°25.475 3°1.419 -999 -999 -999 -999 -999
2007-04-13 08:42:40 51°25.489 3°1.428 -999 -999 -999 -999 -999
2007-04-13 08:42:46 51°25.51 3°1.442 -999 -999 -999 -999 -999
2007-04-13 08:42:50 51°25.524 3°1.451 -999 -999 -999 -999 -999
2007-04-13 08:42:55 51°25.542 3°1.463 -999 -999 -999 -999 -999
2007-04-13 08:43:00 51°25.559 3°1.475 -999 -999 -999 -999 -999
2007-04-13 08:43:06 51°25.58 3°1.489 -999 -999 -999 -999 -999
2007-04-13 08:43:10 51°25.594 3°1.499 -999 -999 -999 -999 -999
2007-04-13 08:43:16 51°25.616 3°1.512 -999 -999 -999 -999 -999
2007-04-13 08:43:20 51°25.63 3°1.522 -999 -999 -999 -999 -999
2007-04-13 08:43:26 51°25.651 3°1.536 -999 -999 -999 -999 -999
2007-04-13 08:43:30 51°25.665 3°1.546 -999 -999 -999 -999 -999
2007-04-13 08:43:36 51°25.686 3°1.56 -999 -999 -999 -999 -999
2007-04-13 08:43:40 51°25.7 3°1.57 -999 -999 -999 -999 -999
2007-04-13 08:43:46 51°25.721 3°1.584 -999 -999 -999 -999 -999
2007-04-13 08:43:50 51°25.736 3°1.593 -999 -999 -999 -999 -999
2007-04-13 08:43:55 51°25.753 3°1.605 -999 -999 -999 -999 -999
2007-04-13 08:44:00 51°25.771 3°1.617 -999 -999 -999 -999 -999
2007-04-13 08:44:06 51°25.792 3°1.631 -999 -999 -999 -999 -999
2007-04-13 08:44:10 51°25.806 3°1.64 -999 -999 -999 -999 -999
2007-04-13 08:44:16 51°25.828 3°1.654 -999 -999 -999 -999 -999
2007-04-13 08:44:20 51°25.842 3°1.664 -999 -999 -999 -999 -999
2007-04-13 08:44:25 51°25.86 3°1.675 -999 -999 -999 -999 -999
2007-04-13 08:44:30 51°25.877 3°1.686 -999 -999 -999 -999 -999
2007-04-13 08:44:36 51°25.899 3°1.7 -999 -999 -999 -999 -999
2007-04-13 08:44:40 51°25.913 3°1.71 -999 -999 -999 -999 -999
2007-04-13 08:44:45 51°25.93 3°1.722 -999 -999 -999 -999 -999
2007-04-13 08:44:50 51°25.948 3°1.734 -999 -999 -999 -999 -999
2007-04-13 08:44:56 51°25.969 3°1.75 -999 -999 -999 -999 -999
2007-04-13 08:45:00 51°25.983 3°1.761 -999 -999 -999 -999 -999
2007-04-13 08:45:06 51°26.003 3°1.778 -999 -999 -999 -999 -999
2007-04-13 08:45:10 51°26.017 3°1.789 -999 -999 -999 -999 -999
2007-04-13 08:45:16 51°26.038 3°1.807 -999 -999 -999 -999 -999
2007-04-13 08:45:20 51°26.051 3°1.818 -999 -999 -999 -999 -999
2007-04-13 08:45:26 51°26.072 3°1.836 -999 -999 -999 -999 -999
2007-04-13 08:45:31 51°26.089 3°1.851 -999 -999 -999 -999 -999
2007-04-13 08:45:36 51°26.106 3°1.866 -999 -999 -999 -999 -999
2007-04-13 08:45:40 51°26.119 3°1.878 -999 -999 -999 -999 -999
2007-04-13 08:45:46 51°26.14 3°1.896 -999 -999 -999 -999 -999
2007-04-13 08:45:50 51°26.154 3°1.907 -999 -999 -999 -999 -999
2007-04-13 08:45:56 51°26.174 3°1.925 -999 -999 -999 -999 -999
2007-04-13 08:46:01 51°26.192 3°1.939 -999 -999 -999 -999 -999
2007-04-13 08:46:06 51°26.209 3°1.954 -999 -999 -999 -999 -999
2007-04-13 08:46:10 51°26.222 3°1.965 -999 -999 -999 -999 -999
2007-04-13 08:46:16 51°26.243 3°1.983 -999 -999 -999 -999 -999
2007-04-13 08:46:20 51°26.257 3°1.995 -999 -999 -999 -999 -999
2007-04-13 08:46:26 51°26.278 3°2.013 -999 -999 -999 -999 -999
2007-04-13 08:46:30 51°26.291 3°2.026 -999 -999 -999 -999 -999
2007-04-13 08:46:35 51°26.308 3°2.042 -999 -999 -999 -999 -999
2007-04-13 08:46:40 51°26.324 3°2.058 -999 -999 -999 -999 -999
2007-04-13 08:46:45 51°26.341 3°2.075 -999 -999 -999 -999 -999
2007-04-13 08:46:50 51°26.358 3°2.092 -999 -999 -999 -999 -999
2007-04-13 08:46:56 51°26.378 3°2.111 -999 -999 -999 -999 -999
2007-04-13 08:47:00 51°26.391 3°2.125 -999 -999 -999 -999 -999
2007-04-13 08:47:06 51°26.411 3°2.144 -999 -999 -999 -999 -999
2007-04-13 08:47:10 51°26.424 3°2.158 -999 -999 -999 -999 -999
2007-04-13 08:47:15 51°26.441 3°2.174 -999 -999 -999 -999 -999
2007-04-13 08:47:20 51°26.458 3°2.191 -999 -999 -999 -999 -999
2007-04-13 08:47:25 51°26.475 3°2.207 -999 -999 -999 -999 -999
2007-04-13 08:47:30 51°26.491 3°2.223 -999 -999 -999 -999 -999
2007-04-13 08:47:35 51°26.508 3°2.239 -999 -999 -999 -999 -999
2007-04-13 08:47:40 51°26.525 3°2.256 -999 -999 -999 -999 -999
2007-04-13 08:47:45 51°26.541 3°2.272 -999 -999 -999 -999 -999
2007-04-13 08:47:50 51°26.558 3°2.289 -999 -999 -999 -999 -999
2007-04-13 08:47:55 51°26.575 3°2.304 -999 -999 -999 -999 -999
2007-04-13 08:48:00 51°26.592 3°2.321 -999 -999 -999 -999 -999
2007-04-13 08:48:05 51°26.609 3°2.337 -999 -999 -999 -999 -999
2007-04-13 08:48:10 51°26.625 3°2.354 -999 -999 -999 -999 -999
2007-04-13 08:48:15 51°26.642 3°2.369 -999 -999 -999 -999 -999
2007-04-13 08:48:20 51°26.659 3°2.386 -999 -999 -999 -999 -999
2007-04-13 08:48:25 51°26.676 3°2.402 -999 -999 -999 -999 -999
2007-04-13 08:48:30 51°26.692 3°2.418 -999 -999 -999 -999 -999
2007-04-13 08:48:35 51°26.709 3°2.434 -999 -999 -999 -999 -999
2007-04-13 08:48:40 51°26.726 3°2.45 -999 -999 -999 -999 -999
2007-04-13 08:48:45 51°26.742 3°2.468 -999 -999 -999 -999 -999
2007-04-13 08:48:50 51°26.758 3°2.485 -999 -999 -999 -999 -999
2007-04-13 08:48:55 51°26.774 3°2.504 -999 -999 -999 -999 -999
2007-04-13 08:49:00 51°26.79 3°2.522 -999 -999 -999 -999 -999
2007-04-13 08:49:05 51°26.806 3°2.541 -999 -999 -999 -999 -999
2007-04-13 08:49:10 51°26.821 3°2.56 -999 -999 -999 -999 -999
2007-04-13 08:49:15 51°26.837 3°2.579 -999 -999 -999 -999 -999
2007-04-13 08:49:20 51°26.853 3°2.598 -999 -999 -999 -999 -999
2007-04-13 08:49:25 51°26.869 3°2.616 -999 -999 -999 -999 -999
2007-04-13 08:49:30 51°26.884 3°2.636 -999 -999 -999 -999 -999
2007-04-13 08:49:35 51°26.9 3°2.655 -999 -999 -999 -999 -999
2007-04-13 08:49:40 51°26.915 3°2.674 -999 -999 -999 -999 -999
2007-04-13 08:49:45 51°26.931 3°2.693 -999 -999 -999 -999 -999
2007-04-13 08:49:50 51°26.946 3°2.712 -999 -999 -999 -999 -999
2007-04-13 08:49:56 51°26.965 3°2.735 -999 -999 -999 -999 -999
2007-04-13 08:50:00 51°26.978 3°2.751 -999 -999 -999 -999 -999
2007-04-13 08:50:06 51°26.996 3°2.774 -999 -999 -999 -999 -999
2007-04-13 08:50:10 51°27.009 3°2.789 -999 -999 -999 -999 -999
2007-04-13 08:50:16 51°27.027 3°2.812 -999 -999 -999 -999 -999
2007-04-13 08:50:20 51°27.04 3°2.827 -999 -999 -999 -999 -999
2007-04-13 08:50:26 51°27.059 3°2.85 -999 -999 -999 -999 -999
2007-04-13 08:50:31 51°27.075 3°2.87 -999 -999 -999 -999 -999
2007-04-13 08:50:36 51°27.09 3°2.889 -999 -999 -999 -999 -999
2007-04-13 08:50:40 51°27.103 3°2.904 -999 -999 -999 -999 -999
2007-04-13 08:50:46 51°27.121 3°2.927 -999 -999 -999 -999 -999
2007-04-13 08:50:50 51°27.134 3°2.942 -999 -999 -999 -999 -999
2007-04-13 08:50:56 51°27.153 3°2.965 -999 -999 -999 -999 -999
2007-04-13 08:51:00 51°27.165 3°2.98 -999 -999 -999 -999 -999
2007-04-13 08:51:06 51°27.184 3°3.003 -999 -999 -999 -999 -999
2007-04-13 08:51:10 51°27.197 3°3.018 -999 -999 -999 -999 -999
2007-04-13 08:51:16 51°27.216 3°3.041 -999 -999 -999 -999 -999
2007-04-13 08:51:20 51°27.228 3°3.056 -999 -999 -999 -999 -999
2007-04-13 08:51:25 51°27.244 3°3.075 -999 -999 -999 -999 -999
2007-04-13 08:51:30 51°27.26 3°3.094 -999 -999 -999 -999 -999
2007-04-13 08:51:36 51°27.279 3°3.116 -999 -999 -999 -999 -999
2007-04-13 08:51:40 51°27.291 3°3.131 -999 -999 -999 -999 -999
2007-04-13 08:51:46 51°27.31 3°3.154 -999 -999 -999 -999 -999
2007-04-13 08:51:50 51°27.323 3°3.169 -999 -999 -999 -999 -999
2007-04-13 08:51:55 51°27.339 3°3.188 -999 -999 -999 -999 -999
2007-04-13 08:52:00 51°27.354 3°3.207 -999 -999 -999 -999 -999
2007-04-13 08:52:06 51°27.373 3°3.229 -999 -999 -999 -999 -999
2007-04-13 08:52:10 51°27.386 3°3.244 -999 -999 -999 -999 -999
2007-04-13 08:52:16 51°27.405 3°3.267 -999 -999 -999 -999 -999
2007-04-13 08:52:20 51°27.418 3°3.282 -999 -999 -999 -999 -999
2007-04-13 08:52:25 51°27.434 3°3.3 -999 -999 -999 -999 -999
2007-04-13 08:52:30 51°27.449 3°3.318 -999 -999 -999 -999 -999
2007-04-13 08:52:36 51°27.468 3°3.34 -999 -999 -999 -999 -999
2007-04-13 08:52:40 51°27.481 3°3.355 -999 -999 -999 -999 -999
2007-04-13 08:52:46 51°27.5 3°3.378 -999 -999 -999 -999 -999
2007-04-13 08:52:50 51°27.513 3°3.393 -999 -999 -999 -999 -999
2007-04-13 08:52:56 51°27.531 3°3.415 -999 -999 -999 -999 -999
2007-04-13 08:53:00 51°27.544 3°3.43 -999 -999 -999 -999 -999